Date String (YYYY-MM-DD hh:mm:ss) UTC,Instrument flags,Ambient pressure (hPa),Sample flow (lpm),Bypass flow (lpm),Sample temperature (°C),Ambient temperature (°C),ASC tube jacket temperature (°C),LED temperature (°C),Box temperature (°C),Sample RH (%),Span deviation,Mass concentration (μg/m³),Mass concentration (μg/m³),Mass concentration (μg/m³)
DateTimeUTC,F1_M11,P_M11,Q1_M11,Q2_M11,T1_M11,T2_M11,T3_M11,T4_M11,T5_M11,U1_M11,ZSPAN_M11,X2_M11,X0_M11,X1_M11
2023-02-24 00:00:00,,0823.7,5.00,0.00,22.8,22.4,00.0,31.5,24.6,04.2,0000.0,0005.13,0008.73,0004.80
2023-02-24 00:01:00,,0823.7,5.00,0.00,22.8,22.0,00.0,31.5,24.5,04.2,0000.0,0005.16,0008.88,0004.82
2023-02-24 00:02:00,,0823.6,4.97,0.00,22.8,21.7,00.0,31.5,24.4,04.2,0000.0,0005.17,0008.90,0004.82
2023-02-24 00:03:00,,0823.7,5.00,0.00,22.8,21.4,00.0,31.5,24.3,04.2,0000.0,0005.19,0008.81,0004.83
2023-02-24 00:04:00,,0823.7,5.00,0.00,22.7,21.1,00.0,31.5,24.2,04.3,0000.0,0005.17,0008.70,0004.84
2023-02-24 00:05:00,,0823.8,5.00,0.00,22.7,20.9,00.0,31.5,24.2,04.2,0000.0,0005.16,0008.69,0004.84
2023-02-24 00:06:00,,0823.8,5.01,0.00,22.6,20.8,00.0,31.5,24.1,04.2,0000.0,0005.19,0008.79,0004.84
2023-02-24 00:07:00,,0823.9,5.00,0.00,22.6,20.7,00.0,31.4,24.1,04.2,0000.0,0005.19,0008.80,0004.83
2023-02-24 00:08:00,,0823.9,4.99,0.00,22.6,21.2,00.0,31.4,24.2,04.2,0000.0,0005.21,0008.87,0004.82
2023-02-24 00:09:00,,0823.8,5.02,0.00,22.7,22.2,00.0,31.4,24.5,04.2,0000.2,0005.18,0008.86,0004.82
2023-02-24 00:10:00,,0823.8,4.99,0.00,22.8,22.9,00.0,31.4,24.7,04.1,0000.8,0005.18,0008.64,0004.80
2023-02-24 00:11:00,,0823.7,5.01,0.00,22.8,22.6,00.0,31.4,24.7,04.1,0001.2,0005.16,0008.44,0004.77
2023-02-24 00:12:00,,0823.7,5.01,0.00,22.8,22.2,00.0,31.4,24.6,04.1,0001.4,0005.10,0008.21,0004.73
2023-02-24 00:13:00,,0823.8,5.01,0.00,22.8,21.8,00.0,31.5,24.4,04.2,0000.0,0005.07,0008.17,0004.71
2023-02-24 00:14:00,,0823.8,4.98,0.00,22.7,21.4,00.0,31.4,24.3,04.2,0000.8,0005.04,0008.81,0004.68
2023-02-24 00:15:00,,0823.9,5.00,0.00,22.6,21.1,00.0,31.4,24.1,04.2,0003.1,0005.01,0009.36,0004.64
2023-02-24 00:16:00,,0823.9,5.01,0.00,22.6,20.8,00.0,31.4,24.0,04.2,0000.8,0004.95,0009.30,0004.59
2023-02-24 00:17:00,,0824.0,5.00,0.00,22.5,20.7,00.0,31.4,24.0,04.3,0000.0,0004.88,0009.14,0004.54
2023-02-24 00:18:00,,0824.1,5.00,0.00,22.5,20.6,00.0,31.4,23.9,04.3,0000.0,0004.83,0009.03,0004.51
2023-02-24 00:19:00,,0824.0,5.01,0.00,22.4,20.6,00.0,31.4,24.0,04.3,0000.0,0004.75,0008.88,0004.47
2023-02-24 00:20:00,,0824.0,4.98,0.00,22.5,21.4,00.0,31.3,24.2,04.3,0000.0,0004.75,0008.96,0004.43
2023-02-24 00:21:00,,0824.0,4.98,0.00,22.6,22.4,00.0,31.3,24.5,04.3,0000.0,0004.72,0009.00,0004.41
2023-02-24 00:22:00,,0824.0,5.03,0.00,22.7,22.9,00.0,31.3,24.6,04.2,0000.0,0004.69,0009.03,0004.40
2023-02-24 00:23:00,,0823.9,5.02,0.00,22.7,22.4,00.0,31.4,24.5,04.2,0000.0,0004.68,0009.08,0004.38
2023-02-24 00:24:00,,0823.9,4.99,0.00,22.7,22.0,00.0,31.4,24.4,04.2,0000.0,0004.69,0009.14,0004.38
2023-02-24 00:25:00,,0823.9,4.99,0.00,22.7,21.6,00.0,31.4,24.4,04.2,0000.0,0004.69,0008.76,0004.37
2023-02-24 00:26:00,,0823.9,4.97,0.00,22.6,21.3,00.0,31.4,24.2,04.2,0000.0,0004.68,0008.18,0004.37
2023-02-24 00:27:00,,0823.8,4.99,0.00,22.6,21.1,00.0,31.4,24.2,04.2,0000.0,0004.69,0007.90,0004.38
2023-02-24 00:28:00,,0823.8,5.01,0.00,22.6,20.9,00.0,31.4,24.1,04.2,0000.0,0004.70,0007.93,0004.38
2023-02-24 00:29:00,,0823.8,4.99,0.00,22.5,20.7,00.0,31.3,24.0,04.2,0000.0,0004.71,0008.42,0004.38
2023-02-24 00:30:00,,0823.9,5.00,0.00,22.5,20.6,00.0,31.3,24.0,04.2,0000.0,0004.73,0008.58,0004.39
2023-02-24 00:31:00,,0824.0,5.02,0.00,22.5,21.2,00.0,31.3,24.2,04.2,0000.0,0004.71,0008.47,0004.40
2023-02-24 00:32:00,,0824.1,4.98,0.00,22.6,22.2,00.0,31.3,24.4,04.2,0000.0,0004.69,0008.33,0004.39
2023-02-24 00:33:00,,0824.1,5.03,0.00,22.7,23.0,00.0,31.3,24.6,04.2,0000.0,0004.70,0008.34,0004.39
2023-02-24 00:34:00,,0824.1,5.03,0.00,22.7,23.0,00.0,31.3,24.7,04.2,0000.0,0004.71,0008.31,0004.40
2023-02-24 00:35:00,,0824.1,5.00,0.00,22.7,22.3,00.0,31.3,24.5,04.2,0000.0,0004.70,0008.30,0004.40
2023-02-24 00:36:00,,0824.1,5.00,0.00,22.7,21.8,00.0,31.4,24.4,04.2,0000.0,0004.68,0008.63,0004.40
2023-02-24 00:37:00,,0824.1,4.96,0.00,22.7,21.5,00.0,31.4,24.2,04.2,0000.0,0004.70,0008.69,0004.40
2023-02-24 00:38:00,,0824.1,5.01,0.00,22.6,21.2,00.0,31.4,24.2,04.2,0000.0,0004.72,0008.84,0004.41
2023-02-24 00:39:00,,0824.1,5.01,0.00,22.6,21.0,00.0,31.4,24.1,04.2,-000.7,0004.74,0008.90,0004.41
2023-02-24 00:40:00,,0824.1,5.01,0.00,22.5,20.9,00.0,31.3,24.1,04.2,0000.0,0004.77,0008.49,0004.42
2023-02-24 00:41:00,,0824.3,5.00,0.00,22.5,20.7,00.0,31.3,24.1,04.2,0000.0,0004.75,0008.32,0004.41
2023-02-24 00:42:00,,0824.3,5.00,0.00,22.5,20.6,00.0,31.3,24.0,04.2,0000.0,0004.75,0008.36,0004.40
2023-02-24 00:43:00,,0824.3,4.99,0.00,22.4,20.5,00.0,31.3,23.8,04.3,0000.0,0004.74,0008.33,0004.40
2023-02-24 00:44:00,,0824.4,5.02,0.00,22.4,21.3,00.0,31.3,24.1,04.2,0000.0,0004.73,0008.36,0004.39
2023-02-24 00:45:00,,0824.4,4.98,0.00,22.5,22.3,00.0,31.3,24.4,04.2,0000.0,0004.72,0008.40,0004.37
2023-02-24 00:46:00,,0824.4,4.97,0.00,22.7,23.2,00.0,31.3,24.6,04.2,0000.0,0004.70,0008.33,0004.36
2023-02-24 00:47:00,,0824.4,4.99,0.00,22.7,23.0,00.0,31.3,24.6,04.2,0000.0,0004.68,0007.94,0004.34
2023-02-24 00:48:00,,0824.4,5.02,0.00,22.7,22.4,00.0,31.3,24.5,04.2,0000.0,0004.67,0007.85,0004.33
2023-02-24 00:49:00,,0824.5,5.01,0.00,22.7,21.9,00.0,31.3,24.4,04.2,0000.0,0004.63,0007.65,0004.32
2023-02-24 00:50:00,,0824.4,4.99,0.00,22.6,21.6,00.0,31.3,24.3,04.2,0000.0,0004.63,0007.64,0004.30
2023-02-24 00:51:00,,0824.4,4.96,0.00,22.6,21.3,00.0,31.3,24.2,04.2,0000.0,0004.59,0007.64,0004.29
2023-02-24 00:52:00,,0824.4,5.03,0.00,22.6,21.0,00.0,31.3,24.1,04.2,0000.0,0004.60,0008.19,0004.29
2023-02-24 00:53:00,,0824.4,5.00,0.00,22.5,20.9,00.0,31.3,24.0,04.2,0000.0,0004.60,0008.20,0004.29
2023-02-24 00:54:00,,0824.5,4.99,0.00,22.5,20.7,00.0,31.3,24.0,04.2,0000.0,0004.61,0008.24,0004.30
2023-02-24 00:55:00,,0824.4,4.99,0.00,22.4,20.6,00.0,31.3,24.0,04.2,0000.0,0004.61,0008.14,0004.30
2023-02-24 00:56:00,,0824.4,5.01,0.00,22.4,20.4,00.0,31.3,23.8,04.2,0000.0,0004.62,0008.07,0004.31
2023-02-24 00:57:00,,0824.4,5.00,0.00,22.4,20.9,00.0,31.3,24.0,04.2,0000.0,0004.60,0008.08,0004.30
2023-02-24 00:58:00,,0824.5,4.98,0.00,22.5,22.0,00.0,31.2,24.2,04.2,0000.0,0004.57,0008.09,0004.25
2023-02-24 00:59:00,,0824.7,5.00,0.00,22.6,22.9,00.0,31.2,24.5,04.2,0000.1,0004.51,0008.08,0004.18
